| time (UTC) | temp F | wind direction | speed MPH | gust MPH | rain 1hr in | rain 24hr in | rain mn in | humidity % | barometer mb |
| 20260906132004 | 63 | 220 | 1.0 | 4.0 | 0.00 | 0.00 | 0.00 | 92 | 1018.1 |
| 20260906131504 | 63 | 215 | 1.0 | 3.0 | 0.00 | 0.00 | 0.00 | 92 | 1018.1 |
| 20260906131025 | 63 | 198 | 1.0 | 4.0 | 0.00 | 0.00 | 0.00 | 93 | 1018.2 |
| 20260906130524 | 62 | 170 | 1.0 | 4.0 | 0.00 | 0.00 | 0.00 | 93 | 1018.1 |
| 20260906130004 | 62 | 197 | 0.0 | 4.0 | 0.00 | 0.00 | 0.00 | 94 | 1018.1 |
| 20260906125504 | 62 | 203 | 0.0 | 4.0 | 0.00 | 0.00 | 0.00 | 93 | 1018.0 |
| 20260906125004 | 62 | 212 | 0.0 | 4.0 | 0.00 | 0.00 | 0.00 | 94 | 1018.0 |
| 20260906124524 | 62 | 247 | 1.0 | 4.0 | 0.00 | 0.00 | 0.00 | 95 | 1018.0 |
| 20260906124024 | 62 | 212 | 1.0 | 3.0 | 0.00 | 0.00 | 0.00 | 94 | 1018.0 |
| 20260906123504 | 62 | 174 | 1.0 | 3.0 | 0.00 | 0.00 | 0.00 | 94 | 1018.0 |
| 20260906123004 | 62 | 164 | 1.0 | 6.0 | 0.00 | 0.00 | 0.00 | 94 | 1018.1 |
| 20260906122503 | 61 | 342 | 1.0 | 6.0 | 0.00 | 0.00 | 0.00 | 95 | 1018.1 |
| 20260906122004 | 61 | 18 | 1.0 | 6.0 | 0.00 | 0.00 | 0.00 | 95 | 1017.9 |
| 20260906121503 | 61 | 214 | 0.0 | 4.0 | 0.00 | 0.00 | 0.00 | 95 | 1017.9 |
| 20260906121003 | 61 | 206 | 1.0 | 6.0 | 0.00 | 0.00 | 0.00 | 95 | 1017.9 |
| 20260906120503 | 61 | 205 | 1.0 | 6.0 | 0.00 | 0.00 | 0.00 | 95 | 1017.9 |
| 20260906120004 | 61 | 220 | 1.0 | 6.0 | 0.00 | 0.00 | 0.00 | 95 | 1017.7 |
| 20260906115504 | 61 | 237 | 1.0 | 4.0 | 0.00 | 0.00 | 0.00 | 95 | 1017.7 |
| 20260906115004 | 61 | 269 | 0.0 | 3.0 | 0.00 | 0.00 | 0.00 | 96 | 1017.6 |
| 20260906114504 | 61 | 254 | 1.0 | 3.0 | 0.00 | 0.00 | 0.00 | 95 | 1017.6 |
| 20260906114003 | 61 | 245 | 1.0 | 7.0 | 0.00 | 0.00 | 0.00 | 96 | 1017.4 |
| 20260906113524 | 61 | 256 | 1.0 | 7.0 | 0.00 | 0.00 | 0.00 | 95 | 1017.3 |
| 20260906113003 | 61 | 286 | 1.0 | 6.0 | 0.00 | 0.00 | 0.00 | 95 | 1017.4 |
| 20260906112503 | 61 | 265 | 1.0 | 6.0 | 0.00 | 0.00 | 0.00 | 95 | 1017.5 |
| 20260906112003 | 61 | 198 | 1.0 | 6.0 | 0.00 | 0.00 | 0.00 | 96 | 1017.5 |
| 20260906111503 | 61 | 190 | 0.0 | 6.0 | 0.00 | 0.00 | 0.00 | 95 | 1017.4 |
| 20260906111025 | 61 | 284 | 0.0 | 3.0 | 0.00 | 0.00 | 0.00 | 96 | 1017.4 |
| 20260906110503 | 61 | 289 | 0.0 | 3.0 | 0.00 | 0.00 | 0.00 | 96 | 1017.2 |
| 20260906110004 | 61 | 244 | 0.0 | 3.0 | 0.00 | 0.00 | 0.00 | 96 | 1017.2 |
| 20260906105504 | 61 | 201 | 0.0 | 3.0 | 0.00 | 0.00 | 0.00 | 96 | 1017.2 |
| 20260906105003 | 61 | 190 | 0.0 | 1.0 | 0.00 | 0.00 | 0.00 | 96 | 1017.1 |
| 20260906104503 | 61 | 190 | 0.0 | 1.0 | 0.00 | 0.00 | 0.00 | 96 | 1017.1 |
| 20260906104003 | 61 | 190 | 0.0 | 1.0 | 0.00 | 0.00 | 0.00 | 96 | 1017.0 |
| 20260906103503 | 61 | 190 | 0.0 | 1.0 | 0.00 | 0.00 | 0.00 | 95 | 1017.1 |
| 20260906103003 | 61 | 208 | 0.0 | 3.0 | 0.00 | 0.00 | 0.00 | 96 | 1017.1 |
| 20260906102503 | 61 | 179 | 1.0 | 6.0 | 0.00 | 0.00 | 0.00 | 95 | 1017.0 |
| 20260906102003 | 61 | 169 | 1.0 | 6.0 | 0.00 | 0.00 | 0.00 | 95 | 1016.9 |
| 20260906101503 | 61 | 266 | 0.0 | 3.0 | 0.00 | 0.00 | 0.00 | 95 | 1016.8 |
| 20260906101003 | 61 | 355 | 0.0 | 3.0 | 0.00 | 0.00 | 0.00 | 96 | 1016.6 |
| 20260906100503 | 61 | 355 | 0.0 | 1.0 | 0.00 | 0.00 | 0.00 | 96 | 1016.5 |
| 20260906100025 | 61 | 334 | 0.0 | 1.0 | 0.00 | 0.00 | 0.00 | 95 | 1016.5 |
| 20260906095503 | 61 | 349 | 0.0 | 3.0 | 0.00 | 0.00 | 0.00 | 96 | 1016.5 |
| 20260906095003 | 61 | 61 | 0.0 | 4.0 | 0.00 | 0.00 | 0.00 | 96 | 1016.3 |
| 20260906094504 | 61 | 70 | 0.0 | 4.0 | 0.00 | 0.00 | 0.00 | 95 | 1016.2 |
| 20260906094003 | 61 | 294 | 0.0 | 1.0 | 0.00 | 0.00 | 0.00 | 96 | 1016.1 |
| 20260906093524 | 61 | 294 | 0.0 | 3.0 | 0.00 | 0.00 | 0.00 | 96 | 1016.1 |
| 20260906093003 | 61 | 291 | 0.0 | 3.0 | 0.00 | 0.00 | 0.00 | 96 | 1016.3 |
| 20260906092503 | 61 | 264 | 0.0 | 3.0 | 0.00 | 0.00 | 0.00 | 96 | 1016.2 |
| 20260906092003 | 61 | 240 | 0.0 | 1.0 | 0.00 | 0.00 | 0.00 | 96 | 1016.2 |
| 20260906091524 | 61 | 240 | 0.0 | 1.0 | 0.00 | 0.00 | 0.00 | 96 | 1016.2 |
| 20260906091003 | 61 | 239 | 0.0 | 1.0 | 0.00 | 0.00 | 0.00 | 96 | 1016.0 |
| 20260906090503 | 61 | 239 | 0.0 | 1.0 | 0.00 | 0.00 | 0.00 | 96 | 1016.0 |
| 20260906090024 | 61 | 244 | 0.0 | 3.0 | 0.00 | 0.00 | 0.00 | 96 | 1015.9 |
| 20260906085524 | 61 | 244 | 0.0 | 3.0 | 0.00 | 0.00 | 0.00 | 96 | 1016.0 |
| 20260906085003 | 61 | 224 | 0.0 | 3.0 | 0.00 | 0.00 | 0.00 | 96 | 1016.2 |
| 20260906084503 | 61 | 230 | 0.0 | 3.0 | 0.00 | 0.00 | 0.00 | 97 | 1016.0 |
| 20260906084003 | 61 | 259 | 0.0 | 3.0 | 0.00 | 0.00 | 0.00 | 97 | 1015.9 |
| 20260906083524 | 61 | 296 | 0.0 | 1.0 | 0.00 | 0.00 | 0.00 | 97 | 1015.9 |
| 20260906083003 | 61 | 296 | 1.0 | 3.0 | 0.00 | 0.00 | 0.00 | 97 | 1015.8 |
| 20260906082503 | 61 | 313 | 1.0 | 3.0 | 0.00 | 0.00 | 0.00 | 97 | 1015.8 |
| 20260906082003 | 61 | 329 | 1.0 | 3.0 | 0.00 | 0.00 | 0.00 | 97 | 1015.8 |
| 20260906081503 | 61 | 347 | 1.0 | 3.0 | 0.00 | 0.00 | 0.00 | 97 | 1015.8 |
| 20260906081003 | 61 | 358 | 1.0 | 4.0 | 0.00 | 0.00 | 0.00 | 97 | 1015.8 |
| 20260906080503 | 61 | 348 | 0.0 | 4.0 | 0.00 | 0.00 | 0.00 | 97 | 1015.8 |
| 20260906080003 | 60 | 321 | 0.0 | 3.0 | 0.00 | 0.00 | 0.00 | 98 | 1015.8 |
| 20260906075503 | 60 | 321 | 1.0 | 3.0 | 0.00 | 0.00 | 0.00 | 98 | 1015.8 |
| 20260906075004 | 60 | 334 | 1.0 | 3.0 | 0.00 | 0.00 | 0.00 | 98 | 1015.9 |
| 20260906074524 | 60 | 14 | 1.0 | 3.0 | 0.00 | 0.00 | 0.00 | 98 | 1015.8 |
| 20260906074003 | 60 | 63 | 0.0 | 3.0 | 0.00 | 0.00 | 0.00 | 98 | 1015.8 |
| 20260906073503 | 60 | 71 | 0.0 | 1.0 | 0.00 | 0.00 | 0.00 | 98 | 1015.8 |
| 20260906073003 | 60 | 80 | 0.0 | 1.0 | 0.00 | 0.00 | 0.00 | 97 | 1015.9 |
| 20260906072503 | 60 | 80 | 0.0 | 1.0 | 0.00 | 0.00 | 0.00 | 97 | 1015.8 |
| 20260906072003 | 59 | 80 | 0.0 | 1.0 | 0.00 | 0.00 | 0.00 | 97 | 1015.8 |
| 20260906071503 | 60 | 80 | 0.0 | 1.0 | 0.00 | 0.00 | 0.00 | 97 | 1015.7 |
| 20260906071003 | 59 | 80 | 0.0 | 1.0 | 0.00 | 0.00 | 0.00 | 97 | 1015.6 |
| 20260906070524 | 59 | 0 | 0.0 | 0.0 | 0.00 | 0.00 | 0.00 | 97 | 1015.6 |
| 20260906070004 | 60 | 0 | 0.0 | 0.0 | 0.00 | 0.00 | 0.00 | 97 | 1015.7 |
| 20260906065503 | 59 | 0 | 0.0 | 0.0 | 0.00 | 0.00 | 0.00 | 97 | 1015.7 |
| 20260906065003 | 59 | 0 | 0.0 | 0.0 | 0.00 | 0.00 | 0.00 | 97 | 1015.6 |
| 20260906064503 | 59 | 0 | 0.0 | 0.0 | 0.00 | 0.00 | 0.00 | 97 | 1015.6 |
| 20260906064003 | 59 | 0 | 0.0 | 0.0 | 0.00 | 0.00 | 0.00 | 96 | 1015.6 |
| 20260906063503 | 59 | 0 | 0.0 | 0.0 | 0.00 | 0.00 | 0.00 | 96 | 1015.6 |
| 20260906063003 | 60 | 0 | 0.0 | 0.0 | 0.00 | 0.00 | 0.00 | 97 | 1015.6 |
| 20260906062524 | 59 | 0 | 0.0 | 0.0 | 0.00 | 0.00 | 0.00 | 96 | 1015.7 |
| 20260906062003 | 59 | 0 | 0.0 | 0.0 | 0.00 | 0.00 | 0.00 | 96 | 1015.7 |
| 20260906061503 | 59 | 81 | 0.0 | 1.0 | 0.00 | 0.00 | 0.00 | 96 | 1015.7 |
| 20260906061003 | 60 | 118 | 0.0 | 3.0 | 0.00 | 0.00 | 0.00 | 96 | 1015.7 |
| 20260906060524 | 60 | 114 | 0.0 | 3.0 | 0.00 | 0.00 | 0.00 | 95 | 1015.8 |
| 20260906060003 | 60 | 107 | 0.0 | 1.0 | 0.00 | 0.00 | 0.00 | 96 | 1015.7 |
| 20260906055524 | 60 | 107 | 0.0 | 1.0 | 0.00 | 0.00 | 0.00 | 95 | 1015.8 |
| 20260906055003 | 60 | 107 | 0.0 | 1.0 | 0.00 | 0.00 | 0.00 | 95 | 1015.8 |
| 20260906054503 | 60 | 107 | 0.0 | 1.0 | 0.00 | 0.00 | 0.00 | 95 | 1015.8 |
| 20260906054003 | 60 | 107 | 0.0 | 1.0 | 0.00 | 0.00 | 0.00 | 96 | 1015.8 |
| 20260906053503 | 60 | 107 | 0.0 | 1.0 | 0.00 | 0.00 | 0.00 | 96 | 1015.8 |
| 20260906053024 | 60 | 107 | 0.0 | 1.0 | 0.00 | 0.00 | 0.00 | 96 | 1015.7 |
| 20260906052503 | 60 | 0 | 0.0 | 0.0 | 0.00 | 0.00 | 0.00 | 95 | 1015.8 |
| 20260906052003 | 60 | 0 | 0.0 | 0.0 | 0.00 | 0.00 | 0.00 | 95 | 1015.9 |
| 20260906051524 | 60 | 107 | 0.0 | 1.0 | 0.00 | 0.00 | 0.00 | 95 | 1015.9 |
| 20260906051003 | 61 | 107 | 1.0 | 1.0 | 0.00 | 0.00 | 0.00 | 95 | 1015.9 |
| 20260906050503 | 61 | 107 | 1.0 | 3.0 | 0.00 | 0.00 | 0.00 | 95 | 1016.0 |
| 20260906050003 | 61 | 107 | 1.0 | 3.0 | 0.00 | 0.00 | 0.00 | 95 | 1016.1 |
| 20260906045503 | 61 | 107 | 1.0 | 3.0 | 0.00 | 0.00 | 0.00 | 95 | 1016.2 |
| 20260906045003 | 61 | 107 | 0.0 | 3.0 | 0.00 | 0.00 | 0.00 | 95 | 1016.1 |
| 20260906044503 | 61 | 107 | 0.0 | 1.0 | 0.00 | 0.00 | 0.00 | 94 | 1016.1 |
| 20260906044024 | 61 | 107 | 0.0 | 1.0 | 0.00 | 0.00 | 0.00 | 94 | 1016.1 |
| 20260906043503 | 61 | 107 | 0.0 | 1.0 | 0.00 | 0.00 | 0.00 | 94 | 1016.1 |
| 20260906043003 | 61 | 0 | 0.0 | 0.0 | 0.00 | 0.00 | 0.00 | 94 | 1016.0 |
| 20260906042503 | 61 | 0 | 0.0 | 0.0 | 0.00 | 0.00 | 0.00 | 94 | 1016.0 |
| 20260906042003 | 61 | 0 | 0.0 | 0.0 | 0.00 | 0.00 | 0.00 | 94 | 1016.0 |
| 20260906041524 | 61 | 0 | 0.0 | 0.0 | 0.00 | 0.00 | 0.00 | 94 | 1016.1 |
| 20260906041003 | 62 | 107 | 0.0 | 1.0 | 0.00 | 0.00 | 0.00 | 94 | 1016.1 |
| 20260906040503 | 62 | 107 | 0.0 | 1.0 | 0.00 | 0.00 | 0.00 | 94 | 1016.1 |
| 20260906040004 | 62 | 107 | 0.0 | 1.0 | 0.00 | 0.00 | 0.00 | 94 | 1016.1 |
| 20260906035505 | 62 | 107 | 0.0 | 1.0 | 0.00 | 0.00 | 0.00 | 93 | 1016.0 |
| 20260906035005 | 62 | 107 | 0.0 | 1.0 | 0.00 | 0.00 | 0.00 | 93 | 1016.0 |
| 20260906034505 | 62 | 107 | 1.0 | 1.0 | 0.00 | 0.00 | 0.00 | 93 | 1015.9 |
| 20260906034005 | 62 | 107 | 1.0 | 3.0 | 0.00 | 0.00 | 0.00 | 94 | 1015.7 |
| 20260906033505 | 62 | 107 | 1.0 | 3.0 | 0.00 | 0.00 | 0.00 | 94 | 1015.7 |
| 20260906033005 | 62 | 107 | 1.0 | 3.0 | 0.00 | 0.00 | 0.00 | 93 | 1015.7 |
| 20260906032505 | 62 | 107 | 1.0 | 3.0 | 0.00 | 0.00 | 0.00 | 93 | 1015.8 |
| 20260906032005 | 62 | 107 | 1.0 | 3.0 | 0.00 | 0.00 | 0.00 | 93 | 1015.7 |
| 20260906031505 | 62 | 107 | 0.0 | 3.0 | 0.00 | 0.00 | 0.00 | 93 | 1015.6 |
| 20260906031005 | 62 | 0 | 0.0 | 0.0 | 0.00 | 0.00 | 0.00 | 93 | 1015.6 |
| 20260906030505 | 62 | 112 | 0.0 | 1.0 | 0.00 | 0.00 | 0.00 | 93 | 1015.5 |
| 20260906030005 | 62 | 112 | 0.0 | 1.0 | 0.00 | 0.00 | 0.00 | 93 | 1015.5 |
| 20260906025505 | 62 | 0 | 0.0 | 0.0 | 0.00 | 0.00 | 0.00 | 93 | 1015.6 |
| 20260906025026 | 62 | 0 | 0.0 | 0.0 | 0.00 | 0.00 | 0.00 | 92 | 1015.5 |
| 20260906024505 | 62 | 0 | 0.0 | 0.0 | 0.00 | 0.00 | 0.00 | 93 | 1015.6 |
| 20260906024026 | 62 | 0 | 0.0 | 0.0 | 0.00 | 0.00 | 0.00 | 92 | 1015.5 |
| 20260906023526 | 62 | 0 | 0.0 | 0.0 | 0.00 | 0.00 | 0.00 | 93 | 1015.5 |
| 20260906023005 | 62 | 0 | 0.0 | 0.0 | 0.00 | 0.00 | 0.00 | 93 | 1015.5 |
| 20260906022505 | 62 | 0 | 0.0 | 0.0 | 0.00 | 0.00 | 0.00 | 93 | 1015.5 |
| 20260906022005 | 62 | 0 | 0.0 | 0.0 | 0.00 | 0.00 | 0.00 | 93 | 1015.4 |
| 20260906021526 | 62 | 0 | 0.0 | 0.0 | 0.00 | 0.00 | 0.00 | 93 | 1015.4 |
| 20260906021005 | 62 | 0 | 0.0 | 0.0 | 0.00 | 0.00 | 0.00 | 93 | 1015.6 |
| 20260906020505 | 62 | 0 | 0.0 | 0.0 | 0.00 | 0.00 | 0.00 | 93 | 1015.5 |
| 20260906020005 | 62 | 0 | 0.0 | 0.0 | 0.00 | 0.00 | 0.00 | 92 | 1015.5 |
| 20260906015505 | 62 | 0 | 0.0 | 0.0 | 0.00 | 0.00 | 0.00 | 92 | 1015.4 |
| 20260906015026 | 63 | 0 | 0.0 | 0.0 | 0.00 | 0.00 | 0.00 | 91 | 1015.5 |
| 20260906014504 | 63 | 0 | 0.0 | 0.0 | 0.00 | 0.00 | 0.00 | 91 | 1015.5 |
| 20260906014005 | 63 | 0 | 0.0 | 0.0 | 0.00 | 0.00 | 0.00 | 92 | 1015.4 |
| 20260906013505 | 63 | 0 | 0.0 | 0.0 | 0.00 | 0.00 | 0.00 | 92 | 1015.3 |
| 20260906013026 | 63 | 0 | 0.0 | 0.0 | 0.00 | 0.00 | 0.00 | 92 | 1015.4 |
| 20260906012526 | 63 | 166 | 0.0 | 1.0 | 0.00 | 0.00 | 0.00 | 92 | 1015.4 |
| 20260906012005 | 63 | 166 | 0.0 | 1.0 | 0.00 | 0.00 | 0.00 | 92 | 1015.2 |
| 20260906011526 | 63 | 166 | 0.0 | 1.0 | 0.00 | 0.00 | 0.00 | 92 | 1015.2 |
| 20260906011005 | 63 | 171 | 0.0 | 4.0 | 0.00 | 0.00 | 0.00 | 92 | 1015.2 |
| 20260906010505 | 63 | 190 | 0.0 | 4.0 | 0.00 | 0.00 | 0.00 | 91 | 1015.2 |
| 20260906010005 | 63 | 211 | 0.0 | 1.0 | 0.00 | 0.00 | 0.00 | 91 | 1015.3 |
| 20260906005505 | 64 | 211 | 0.0 | 1.0 | 0.00 | 0.00 | 0.00 | 91 | 1015.1 |
| 20260906005005 | 64 | 199 | 0.0 | 4.0 | 0.00 | 0.00 | 0.00 | 90 | 1015.0 |
| 20260906004505 | 64 | 193 | 0.0 | 4.0 | 0.00 | 0.00 | 0.00 | 90 | 1014.9 |
| 20260906004026 | 64 | 0 | 0.0 | 0.0 | 0.00 | 0.00 | 0.00 | 90 | 1014.8 |
| 20260906003505 | 64 | 0 | 0.0 | 0.0 | 0.00 | 0.00 | 0.00 | 90 | 1014.7 |
| 20260906003005 | 64 | 0 | 0.0 | 0.0 | 0.00 | 0.00 | 0.00 | 89 | 1014.5 |
| 20260906002504 | 64 | 0 | 0.0 | 0.0 | 0.00 | 0.00 | 0.00 | 89 | 1014.4 |
| 20260906002005 | 64 | 0 | 0.0 | 0.0 | 0.00 | 0.00 | 0.00 | 88 | 1014.5 |
| 20260906001505 | 65 | 0 | 0.0 | 0.0 | 0.00 | 0.00 | 0.00 | 88 | 1014.5 |
| 20260906001005 | 65 | 0 | 0.0 | 0.0 | 0.00 | 0.00 | 0.00 | 88 | 1014.5 |
| 20260906000525 | 65 | 0 | 0.0 | 0.0 | 0.00 | 0.00 | 0.00 | 88 | 1014.5 |
| 20260906000004 | 65 | 0 | 0.0 | 0.0 | 0.00 | 0.00 | 0.00 | 88 | 1014.4 |
| 20260905235504 | 65 | 0 | 0.0 | 0.0 | 0.00 | 0.00 | 0.00 | 87 | 1014.4 |
| 20260905235004 | 65 | 186 | 0.0 | 3.0 | 0.00 | 0.00 | 0.00 | 87 | 1014.2 |
| 20260905234505 | 66 | 186 | 0.0 | 3.0 | 0.00 | 0.00 | 0.00 | 87 | 1014.2 |
| 20260905234005 | 66 | 174 | 0.0 | 3.0 | 0.00 | 0.00 | 0.00 | 87 | 1014.2 |
| 20260905233504 | 66 | 166 | 0.0 | 3.0 | 0.00 | 0.00 | 0.00 | 86 | 1014.2 |
| 20260905233005 | 66 | 160 | 0.0 | 1.0 | 0.00 | 0.00 | 0.00 | 87 | 1014.3 |
| 20260905232504 | 66 | 160 | 0.0 | 1.0 | 0.00 | 0.00 | 0.00 | 86 | 1014.2 |
| 20260905232004 | 66 | 161 | 0.0 | 3.0 | 0.00 | 0.00 | 0.00 | 86 | 1014.2 |
| 20260905231505 | 67 | 193 | 0.0 | 3.0 | 0.00 | 0.00 | 0.00 | 85 | 1014.1 |
| 20260905231004 | 67 | 289 | 0.0 | 3.0 | 0.00 | 0.00 | 0.00 | 85 | 1014.1 |
| 20260905230504 | 67 | 307 | 0.0 | 3.0 | 0.00 | 0.00 | 0.00 | 86 | 1014.0 |
| 20260905230005 | 68 | 306 | 0.0 | 3.0 | 0.00 | 0.00 | 0.00 | 85 | 1014.0 |
| 20260905225525 | 68 | 0 | 0.0 | 0.0 | 0.00 | 0.00 | 0.00 | 86 | 1014.1 |
| 20260905225005 | 68 | 0 | 0.0 | 0.0 | 0.00 | 0.00 | 0.00 | 85 | 1014.1 |
| 20260905224526 | 68 | 0 | 0.0 | 0.0 | 0.00 | 0.00 | 0.00 | 85 | 1014.0 |
| 20260905224025 | 68 | 0 | 0.0 | 0.0 | 0.00 | 0.00 | 0.00 | 85 | 1014.0 |
| 20260905223504 | 69 | 0 | 0.0 | 0.0 | 0.00 | 0.00 | 0.00 | 84 | 1014.0 |
| 20260905223025 | 69 | 0 | 0.0 | 0.0 | 0.00 | 0.00 | 0.00 | 84 | 1014.1 |
| 20260905222504 | 69 | 0 | 0.0 | 0.0 | 0.00 | 0.00 | 0.00 | 83 | 1014.0 |
| 20260905222004 | 69 | 0 | 0.0 | 0.0 | 0.00 | 0.00 | 0.00 | 83 | 1014.2 |
| 20260905221504 | 70 | 9 | 1.0 | 3.0 | 0.00 | 0.00 | 0.00 | 82 | 1014.1 |
| 20260905221004 | 70 | 38 | 1.0 | 3.0 | 0.00 | 0.00 | 0.00 | 82 | 1013.9 |
| 20260905220504 | 70 | 35 | 1.0 | 4.0 | 0.00 | 0.00 | 0.00 | 79 | 1013.9 |
| 20260905220004 | 70 | 16 | 1.0 | 4.0 | 0.00 | 0.00 | 0.00 | 82 | 1013.9 |
| 20260905215505 | 70 | 345 | 1.0 | 4.0 | 0.00 | 0.00 | 0.00 | 81 | 1013.9 |
| 20260905215004 | 71 | 350 | 1.0 | 4.0 | 0.00 | 0.00 | 0.00 | 82 | 1013.8 |
| 20260905214504 | 71 | 341 | 1.0 | 6.0 | 0.00 | 0.00 | 0.00 | 81 | 1013.7 |
| 20260905214004 | 71 | 323 | 1.0 | 6.0 | 0.00 | 0.00 | 0.00 | 80 | 1013.7 |
| 20260905213504 | 71 | 167 | 1.0 | 3.0 | 0.00 | 0.00 | 0.00 | 79 | 1013.7 |
| 20260905213004 | 72 | 236 | 1.0 | 4.0 | 0.00 | 0.00 | 0.00 | 79 | 1013.7 |
| 20260905212504 | 72 | 343 | 1.0 | 4.0 | 0.00 | 0.00 | 0.00 | 78 | 1013.8 |
| 20260905212004 | 72 | 248 | 1.0 | 6.0 | 0.00 | 0.00 | 0.00 | 79 | 1013.7 |
| 20260905211525 | 72 | 236 | 1.0 | 6.0 | 0.00 | 0.00 | 0.00 | 79 | 1013.7 |
| 20260905211025 | 72 | 126 | 1.0 | 9.0 | 0.00 | 0.00 | 0.00 | 78 | 1013.7 |
| 20260905210525 | 72 | 67 | 1.0 | 9.0 | 0.00 | 0.00 | 0.00 | 79 | 1013.7 |
| 20260905210004 | 72 | 317 | 1.0 | 4.0 | 0.00 | 0.00 | 0.00 | 78 | 1013.8 |
| 20260905205504 | 72 | 236 | 1.0 | 4.0 | 0.00 | 0.00 | 0.00 | 78 | 1013.7 |
| 20260905205004 | 72 | 115 | 0.0 | 3.0 | 0.00 | 0.00 | 0.00 | 77 | 1013.7 |
| 20260905204525 | 72 | 163 | 1.0 | 4.0 | 0.00 | 0.00 | 0.00 | 77 | 1013.5 |
| 20260905204004 | 72 | 162 | 1.0 | 6.0 | 0.00 | 0.00 | 0.00 | 74 | 1013.7 |
| 20260905203504 | 72 | 164 | 1.0 | 6.0 | 0.00 | 0.00 | 0.00 | 72 | 1013.6 |
| 20260905203004 | 73 | 173 | 1.0 | 4.0 | 0.00 | 0.00 | 0.00 | 75 | 1013.5 |
| 20260905202525 | 73 | 149 | 1.0 | 4.0 | 0.00 | 0.00 | 0.00 | 75 | 1013.5 |
| 20260905202004 | 73 | 106 | 1.0 | 7.0 | 0.00 | 0.00 | 0.00 | 74 | 1013.5 |
| 20260905201525 | 74 | 48 | 1.0 | 7.0 | 0.00 | 0.00 | 0.00 | 73 | 1013.4 |
| 20260905201004 | 74 | 286 | 1.0 | 6.0 | 0.00 | 0.00 | 0.00 | 73 | 1013.4 |
| 20260905200504 | 74 | 267 | 1.0 | 7.0 | 0.00 | 0.00 | 0.00 | 72 | 1013.5 |
| 20260905200004 | 75 | 207 | 1.0 | 7.0 | 0.00 | 0.00 | 0.00 | 70 | 1013.4 |
| 20260905195504 | 75 | 222 | 1.0 | 10.0 | 0.00 | 0.00 | 0.00 | 71 | 1013.5 |
| 20260905195004 | 75 | 249 | 3.0 | 10.0 | 0.00 | 0.00 | 0.00 | 66 | 1013.5 |
| 20260905194504 | 76 | 316 | 3.0 | 9.0 | 0.00 | 0.00 | 0.00 | 67 | 1013.5 |
| 20260905194004 | 76 | 342 | 1.0 | 9.0 | 0.00 | 0.00 | 0.00 | 68 | 1013.4 |
| 20260905193504 | 76 | 315 | 1.0 | 7.0 | 0.00 | 0.00 | 0.00 | 61 | 1013.3 |
| 20260905193004 | 76 | 343 | 1.0 | 6.0 | 0.00 | 0.00 | 0.00 | 67 | 1013.5 |
| 20260905192504 | 76 | 269 | 1.0 | 6.0 | 0.00 | 0.00 | 0.00 | 69 | 1013.6 |
| 20260905192004 | 75 | 310 | 1.0 | 7.0 | 0.00 | 0.00 | 0.00 | 68 | 1013.6 |
| 20260905191504 | 75 | 331 | 1.0 | 7.0 | 0.00 | 0.00 | 0.00 | 72 | 1013.7 |
| 20260905191004 | 74 | 267 | 1.0 | 6.0 | 0.00 | 0.00 | 0.00 | 71 | 1013.6 |
| 20260905190504 | 74 | 304 | 1.0 | 9.0 | 0.00 | 0.00 | 0.00 | 73 | 1013.7 |
| 20260905190025 | 74 | 295 | 1.0 | 9.0 | 0.00 | 0.00 | 0.00 | 71 | 1013.7 |
| 20260905185504 | 75 | 271 | 1.0 | 6.0 | 0.00 | 0.00 | 0.00 | 70 | 1013.8 |
| 20260905185004 | 75 | 310 | 1.0 | 6.0 | 0.00 | 0.00 | 0.00 | 66 | 1013.8 |
| 20260905184525 | 75 | 326 | 1.0 | 6.0 | 0.00 | 0.00 | 0.00 | 69 | 1013.8 |
| 20260905184004 | 75 | 322 | 1.0 | 4.0 | 0.00 | 0.00 | 0.00 | 69 | 1013.8 |
| 20260905183525 | 74 | 246 | 1.0 | 4.0 | 0.00 | 0.00 | 0.00 | 73 | 1013.8 |
| 20260905183025 | 74 | 206 | 1.0 | 6.0 | 0.00 | 0.00 | 0.00 | 69 | 1013.7 |
| 20260905182504 | 73 | 197 | 1.0 | 6.0 | 0.00 | 0.00 | 0.00 | 74 | 1013.8 |
| 20260905182004 | 73 | 30 | 1.0 | 4.0 | 0.00 | 0.00 | 0.00 | 76 | 1014.0 |
| 20260905181504 | 72 | 356 | 1.0 | 6.0 | 0.00 | 0.00 | 0.00 | 74 | 1014.0 |
| 20260905181004 | 72 | 14 | 1.0 | 6.0 | 0.00 | 0.00 | 0.00 | 76 | 1014.0 |
| 20260905180525 | 72 | 70 | 0.0 | 3.0 | 0.00 | 0.00 | 0.00 | 75 | 1013.9 |
| 20260905180004 | 73 | 86 | 0.0 | 6.0 | 0.00 | 0.00 | 0.00 | 72 | 1014.0 |
| 20260905175525 | 73 | 215 | 1.0 | 6.0 | 0.00 | 0.00 | 0.00 | 71 | 1014.0 |
| 20260905175004 | 73 | 232 | 1.0 | 7.0 | 0.00 | 0.00 | 0.00 | 71 | 1014.0 |
| 20260905174504 | 73 | 203 | 1.0 | 7.0 | 0.00 | 0.00 | 0.00 | 72 | 1014.0 |
| 20260905174004 | 73 | 220 | 3.0 | 9.0 | 0.00 | 0.00 | 0.00 | 72 | 1013.9 |
| 20260905173504 | 72 | 244 | 1.0 | 9.0 | 0.00 | 0.00 | 0.00 | 76 | 1014.1 |
| 20260905173004 | 72 | 243 | 1.0 | 6.0 | 0.00 | 0.00 | 0.00 | 73 | 1014.1 |
| 20260905172504 | 71 | 260 | 1.0 | 6.0 | 0.00 | 0.00 | 0.00 | 72 | 1014.1 |
| 20260905172004 | 71 | 179 | 1.0 | 4.0 | 0.00 | 0.00 | 0.00 | 79 | 1014.3 |
| 20260905171504 | 70 | 188 | 1.0 | 4.0 | 0.00 | 0.00 | 0.00 | 81 | 1014.3 |
| 20260905171004 | 70 | 304 | 0.0 | 4.0 | 0.00 | 0.00 | 0.00 | 79 | 1014.3 |
| 20260905170504 | 70 | 25 | 0.0 | 4.0 | 0.00 | 0.00 | 0.00 | 83 | 1014.4 |
| 20260905170004 | 70 | 70 | 1.0 | 6.0 | 0.00 | 0.00 | 0.00 | 81 | 1014.4 |
| 20260905165525 | 70 | 9 | 1.0 | 9.0 | 0.00 | 0.00 | 0.00 | 79 | 1014.5 |
| 20260905165004 | 70 | 311 | 1.0 | 9.0 | 0.00 | 0.00 | 0.00 | 81 | 1014.5 |
| 20260905164504 | 70 | 87 | 0.0 | 3.0 | 0.00 | 0.00 | 0.00 | 81 | 1014.7 |
| 20260905164004 | 70 | 96 | 1.0 | 3.0 | 0.00 | 0.00 | 0.00 | 79 | 1014.7 |
| 20260905163504 | 70 | 125 | 1.0 | 3.0 | 0.00 | 0.00 | 0.00 | 77 | 1014.5 |
| 20260905163004 | 70 | 214 | 1.0 | 3.0 | 0.00 | 0.00 | 0.00 | 76 | 1014.7 |
| 20260905162504 | 71 | 257 | 1.0 | 4.0 | 0.00 | 0.00 | 0.00 | 77 | 1014.7 |
| 20260905162004 | 71 | 176 | 1.0 | 6.0 | 0.00 | 0.00 | 0.00 | 76 | 1014.8 |
| 20260905161504 | 71 | 165 | 1.0 | 6.0 | 0.00 | 0.00 | 0.00 | 76 | 1014.8 |
| 20260905161004 | 71 | 161 | 1.0 | 6.0 | 0.00 | 0.00 | 0.00 | 78 | 1014.7 |
| 20260905160504 | 72 | 210 | 1.0 | 6.0 | 0.00 | 0.00 | 0.00 | 73 | 1014.7 |
| 20260905160004 | 72 | 204 | 1.0 | 9.0 | 0.00 | 0.00 | 0.00 | 76 | 1014.8 |
| 20260905155504 | 73 | 179 | 1.0 | 9.0 | 0.00 | 0.00 | 0.00 | 70 | 1014.6 |
| 20260905155004 | 73 | 183 | 1.0 | 7.0 | 0.00 | 0.00 | 0.00 | 73 | 1014.7 |
| 20260905154525 | 73 | 186 | 1.0 | 6.0 | 0.00 | 0.00 | 0.00 | 74 | 1015.1 |
| 20260905154004 | 73 | 279 | 1.0 | 6.0 | 0.00 | 0.00 | 0.00 | 72 | 1014.6 |
| 20260905153504 | 73 | 302 | 1.0 | 7.0 | 0.00 | 0.00 | 0.00 | 75 | 1014.5 |
| 20260905153004 | 72 | 146 | 1.0 | 7.0 | 0.00 | 0.00 | 0.00 | 76 | 1014.4 |
| 20260905152504 | 72 | 230 | 1.0 | 10.0 | 0.00 | 0.00 | 0.00 | 74 | 1014.6 |
| 20260905152004 | 71 | 251 | 3.0 | 12.0 | 0.00 | 0.00 | 0.00 | 80 | 1014.7 |
| 20260905151504 | 71 | 210 | 3.0 | 12.0 | 0.00 | 0.00 | 0.00 | 78 | 1014.7 |
| 20260905151004 | 70 | 222 | 1.0 | 7.0 | 0.00 | 0.00 | 0.00 | 86 | 1014.8 |
| 20260905150525 | 69 | 215 | 1.0 | 10.0 | 0.00 | 0.00 | 0.00 | 81 | 1014.6 |
| 20260905150004 | 69 | 253 | 1.0 | 10.0 | 0.00 | 0.00 | 0.00 | 80 | 1014.7 |
| 20260905145504 | 69 | 296 | 1.0 | 14.0 | 0.00 | 0.00 | 0.00 | 83 | 1014.8 |
| 20260905145004 | 68 | 251 | 3.0 | 14.0 | 0.00 | 0.00 | 0.00 | 83 | 1014.8 |
| 20260905144504 | 68 | 158 | 1.0 | 6.0 | 0.00 | 0.00 | 0.00 | 83 | 1014.8 |
| 20260905144004 | 68 | 157 | 1.0 | 12.0 | 0.00 | 0.00 | 0.00 | 86 | 1014.8 |
| 20260905143504 | 67 | 192 | 1.0 | 12.0 | 0.00 | 0.00 | 0.00 | 87 | 1014.8 |
| 20260905143004 | 67 | 270 | 1.0 | 9.0 | 0.00 | 0.00 | 0.00 | 86 | 1014.9 |
| 20260905142504 | 66 | 336 | 1.0 | 4.0 | 0.00 | 0.00 | 0.00 | 86 | 1014.7 |
| 20260905142025 | 66 | 107 | 1.0 | 6.0 | 0.00 | 0.00 | 0.00 | 86 | 1014.8 |
| 20260905141504 | 65 | 134 | 1.0 | 6.0 | 0.00 | 0.00 | 0.00 | 87 | 1015.0 |
| 20260905141004 | 65 | 329 | 1.0 | 6.0 | 0.00 | 0.00 | 0.00 | 88 | 1014.8 |
| 20260905140504 | 65 | 303 | 1.0 | 7.0 | 0.00 | 0.00 | 0.00 | 91 | 1014.8 |
| 20260905140004 | 65 | 234 | 1.0 | 7.0 | 0.00 | 0.00 | 0.00 | 88 | 1014.9 |
| 20260905135504 | 65 | 257 | 1.0 | 6.0 | 0.00 | 0.00 | 0.00 | 91 | 1014.9 |
| 20260905135004 | 65 | 226 | 1.0 | 6.0 | 0.00 | 0.00 | 0.00 | 92 | 1014.9 |
| 20260905134504 | 65 | 178 | 1.0 | 7.0 | 0.00 | 0.00 | 0.00 | 91 | 1014.8 |
| 20260905134004 | 65 | 184 | 1.0 | 7.0 | 0.00 | 0.00 | 0.00 | 91 | 1014.9 |
| 20260905133504 | 64 | 203 | 1.0 | 4.0 | 0.00 | 0.00 | 0.00 | 92 | 1015.0 |
| 20260905133004 | 64 | 7 | 1.0 | 4.0 | 0.00 | 0.00 | 0.00 | 93 | 1014.9 |
| 20260905132503 | 64 | 287 | 1.0 | 4.0 | 0.00 | 0.00 | 0.00 | 94 | 1014.9 |